Weather observations for the past three days for
Lincolnton, Lincolnton-Lincoln County Regional Airport
Imperial (Metric)
Date Time (edt) Wind (mph) Vis. (mi.) Weather Sky Cond. Temperature (ºF) Relative Humidity Wind Chill (°F) Heat Index (°F) Pressure Precipitation (in)
Air Dwpt 6 hour altimeter (in) sea level (mb) 1 hr 3 hr 6 hr
Max. Min.
19 23:05 E 3 10.00 Partly Cloudy SCT032 SCT110 74.3 71.6 91% 30.12 0.0
19 22:45 Calm 10.00 Partly Cloudy SCT027 SCT032 SCT120 74.7 72.3 92% 30.12 0.0
19 22:25 Calm 10.00 Mostly Cloudy SCT027 BKN120 74.7 73 95% 30.13 0.0
19 22:05 Calm 10.00 Mostly Cloudy SCT023 BKN120 74.3 73.4 97% 30.12 0.0
19 21:45 Calm 10.00 Fair CLR 74.5 73.6 97% 30.12 0.0
19 21:25 Calm 10.00 Fair CLR 74.5 73.6 97% 30.1 0.0
19 21:05 Calm 10.00 Light Drizzle CLR 75.2 73.6 95% 74 30.1 0.0
19 20:45 Calm 10.00 Fair CLR 75.6 73.9 95% 74 30.1 0.0
19 20:25 Calm 10.00 Fair CLR 75.7 73.8 94% 75 30.1 0.0
19 20:05 Calm 10.00 Fair CLR 76.3 74.1 93% 76 30.1 0.0
19 19:45 Calm 10.00 Fair CLR 76.8 73.9 91% 78 30.08 0.0
19 19:25 Calm 10.00 Fair CLR 78.1 73.4 86% 81 30.07 0.0
19 19:05 Calm 10.00 Light Drizzle CLR 77.7 72.3 84% 80 30.08 0.0
19 18:45 Calm 10.00 Light Rain CLR 79 72 79% 82 30.08 0.0
19 18:25 Calm 10.00 Fair CLR 79.2 71.6 78% 82 30.08 0.0
19 18:05 Calm 10.00 Fair CLR 79.9 72.1 77% 84 30.07 0.0
19 17:45 Calm 10.00 Fair CLR 80.4 72 76% 84 30.07 0.0
19 17:25 E 3 10.00 Partly Cloudy SCT021 80.4 72.3 76% 85 30.06 0.0
19 17:05 E 5 10.00 Partly Cloudy SCT018 82.4 73 73% 88 30.06 0.0
19 16:45 E 3 10.00 Partly Cloudy SCT017 80.8 72.7 76% 85 30.06 0.0
19 16:25 SE 3 10.00 Partly Cloudy SCT017 80.8 73.2 78% 86 30.07 0.0
19 16:05 E 5 10.00 Fair CLR 79.9 72.5 78% 84 30.08 0.0
19 15:45 Calm 10.00 Partly Cloudy SCT014 79.2 72.5 80% 83 30.09 0.0
19 15:25 S 3 10.00 Partly Cloudy SCT012 79.3 73 81% 83 30.09 0.0
19 15:05 S 3 10.00 Mostly Cloudy BKN010 BKN024 77.9 73.6 87% 80 30.1 0.0
19 14:45 Calm 10.00 Rain SCT013 SCT022 BKN027 77.2 73 87% 79 30.11 0.0
19 14:25 Calm 10.00 Light Rain SCT015 SCT020 BKN029 77.5 72 83% 79 30.12 0.0
19 14:05 Calm 10.00 Partly Cloudy SCT026 SCT032 77 71.8 84% 78 30.12 0.0
19 13:45 Calm 10.00 Mostly Cloudy SCT016 BKN024 BKN030 77 72 85% 78 30.13 0.0
19 13:25 Calm 10.00 Overcast SCT019 BKN024 OVC046 77.4 71.8 83% 79 30.13 0.0
19 13:00 E 3 10.00 Mostly Cloudy SCT016 BKN023 77.4 71.1 81% 79 30.14 0.0
19 12:45 E 8 10.00 Overcast BKN014 OVC021 77.7 71.1 80% 80 30.14 0.0
19 12:25 NE 3 10.00 Overcast BKN016 OVC023 77.7 71.8 82% 80 30.14 0.0
19 12:05 NE 5 10.00 Overcast OVC016 76.1 71.1 84% 77 30.13 0.0
19 11:45 NE 5 10.00 Overcast OVC014 76.1 70.9 84% 77 30.13 0.0
19 11:25 NE 5 10.00 Overcast BKN012 OVC036 75.6 71.1 86% 76 30.13 0.0
19 11:05 NE 6 10.00 Overcast BKN012 OVC034 75 71.2 88% 74 30.13 0.0
19 10:45 NE 5 10.00 Overcast OVC010 74.3 71.4 91% 30.13 0.0
19 10:25 Calm 10.00 Mostly Cloudy BKN010 BKN028 74.3 71.2 90% 30.13 0.0
19 10:05 NE 3 10.00 Mostly Cloudy SCT010 BKN024 74.1 71.6 92% 30.12 0.0
19 09:45 NE 5 10.00 Overcast OVC022 73.4 71.2 93% 30.12 0.0
19 09:25 E 3 10.00 Overcast OVC020 73.4 71.4 94% 30.12 0.0
19 09:05 E 5 10.00 Overcast OVC018 73.4 71.4 94% 30.12 0.0
19 08:45 NE 3 10.00 Overcast SCT006 OVC016 72.9 71.2 95% 30.11 0.0
19 08:25 NE 3 10.00 Overcast SCT006 OVC012 72.9 71.8 96% 30.11 0.0
19 08:05 NE 5 10.00 Overcast BKN006 OVC012 72.7 71.8 97% 30.1 0.0
19 07:45 NE 3 10.00 Overcast OVC004 72.5 72 98% 30.09 0.0
19 07:25 NE 3 7.00 Overcast OVC004 72.5 72.1 99% 30.08 0.0
19 07:05 Calm 5.00 Fog/Mist OVC004 72.1 72 99% 30.07 0.0
19 06:45 Calm 0.25 Fog OVC002 72 71.8 99% 30.07 0.0
19 06:25 Calm 0.50 Fog OVC002 71.4 71.2 99% 30.06 0.0
19 06:05 Calm 1.25 Fog/Mist OVC002 71.6 71.2 99% 30.05 0.0
19 05:45 Calm 1.50 Fog/Mist OVC002 71.6 71.6 100% 30.05 0.0
19 05:25 Calm 1.75 Fog/Mist OVC002 71.4 71.2 99% 30.05 0.0
19 05:05 Calm 10.00 Partly Cloudy SCT022 SCT045 71.6 71.2 99% 30.04 0.0
19 04:45 Calm 10.00 Mostly Cloudy SCT022 BKN047 71.6 71.6 100% 30.04 0.0
19 04:25 Calm 1.00 Fog/Mist BKN001 OVC046 71.2 71.1 99% 30.05 0.0
19 04:05 Calm 4.00 Fog/Mist BKN110 71.4 71.1 99% 30.04 0.0
19 03:40 Calm 3.00 Fog/Mist OVC110 71.6 71.1 98% 30.03 0.0
19 03:25 Calm 7.00 Overcast SCT043 OVC110 72 71.6 99% 30.04 0.0
19 03:05 Calm 7.00 Overcast SCT043 OVC100 72.3 71.8 98% 30.04 0.0
19 02:45 Calm 3.00 Fog/Mist OVC110 71.8 71.6 99% 30.04 0.0
19 02:25 Calm 5.00 Fog/Mist OVC110 72.1 71.6 98% 30.04 0.0
19 02:05 Calm 10.00 Overcast OVC100 72.7 72 98% 30.05 0.0
19 01:45 Calm 10.00 Overcast SCT050 OVC110 72.9 72.1 98% 30.05 0.0
19 01:25 Calm 10.00 Mostly Cloudy SCT050 BKN110 72.5 72 98% 30.06 0.0
19 01:05 Calm 10.00 Partly Cloudy SCT002 72.1 71.8 99% 30.05 0.0
19 00:45 Calm 4.00 Fog/Mist BKN002 BKN055 72.3 72.1 99% 30.05 0.0
19 00:25 Calm 4.00 Fog/Mist SCT002 SCT055 72 71.6 99% 30.05 0.0
19 00:05 Calm 5.00 Fog/Mist CLR 72.3 71.8 98% 30.05 0.0
18 23:45 Calm 7.00 Fair CLR 72.5 72 98% 30.05 0.0
18 23:25 Calm 7.00 Fair CLR 72.5 71.8 98% 30.05 0.0
18 23:05 Calm 10.00 Fair CLR 72.9 72.5 99% 30.05 0.0
18 22:45 SW 3 10.00 Fair CLR 72.9 72.5 99% 30.05 0.0
18 22:25 Calm 7.00 Fair CLR 72.7 72.5 99% 30.05 0.0
18 22:00 Calm 10.00 Fair CLR 72.9 72.5 99% 30.04 0.0
18 21:45 Calm 7.00 Fair CLR 72.9 72.5 99% 30.03 0.0
18 21:25 Calm 7.00 Fair CLR 72.9 72.5 99% 30.03 0.0
18 21:05 Calm 7.00 Fair CLR 73.2 72.7 98% 30.02 0.0
18 20:45 Calm 7.00 Fair CLR 73.4 72.5 97% 30 0.0
18 20:25 Calm 10.00 Fair CLR 74.3 73.2 96% 30 0.0
18 20:05 Calm 10.00 Fair CLR 75.2 72.9 92% 74 29.98 0.0
18 19:45 Calm 10.00 Fair CLR 75.4 72.5 91% 75 30 0.0
18 19:25 Calm 10.00 Partly Cloudy SCT008 SCT065 75.7 72 88% 76 29.99 0.0
18 19:05 Calm 10.00 Partly Cloudy SCT006 76.5 72.7 88% 77 29.98 0.0
18 18:45 Calm 10.00 Mostly Cloudy BKN006 BKN010 75.6 73 92% 75 29.98 0.0
18 18:25 Calm 10.00 Partly Cloudy SCT006 SCT025 SCT034 74.3 72.9 95% 29.98 0.0
18 18:05 Calm 10.00 Light Rain SCT032 SCT040 72.9 71.2 95% 29.98 0.0
18 17:45 Calm 10.00 Light Rain SCT033 SCT039 72.5 70.9 95% 29.98 0.0
18 17:25 Calm 10.00 Light Rain CLR 73 71.4 95% 29.98 0.0
18 17:05 N 7 10.00 Light Rain SCT060 SCT080 72.5 70.9 95% 29.96 0.0
18 16:45 N 5 7.00 Light Rain SCT010 SCT018 BKN030 71.8 70.3 95% 29.98 0.0 0.52
18 16:25 W 10 G 29 1.00 Heavy Rain BKN010 OVC047 72.9 70 91% 30.01 0.0 0.3
18 16:05 N 9 G 23 10.00 Overcast BKN060 OVC080 78.3 68.7 73% 80 29.98 0.0
18 15:45 W 7 10.00 Partly Cloudy SCT080 90 69.1 50% 95 29.95 0.0
18 15:25 SW 7 10.00 Fair CLR 90.1 69.3 50% 95 29.94 0.0
18 15:05 Calm 10.00 Partly Cloudy SCT050 89.1 68.7 51% 93 29.94 0.0
18 14:45 Calm 10.00 Partly Cloudy SCT050 90.3 68.9 49% 95 29.96 0.0
18 14:25 S 5 10.00 Fair CLR 90.1 69.8 51% 95 29.97 0.0
18 14:05 Calm 10.00 Fair CLR 88.9 68.7 51% 93 29.98 0.0
18 13:45 S 3 10.00 Partly Cloudy SCT047 SCT060 SCT085 89.1 69.8 53% 94 29.98 0.0
18 13:25 W 6 10.00 Partly Cloudy SCT047 SCT060 89.1 69.6 53% 94 30 0.0
18 13:05 Calm 10.00 Partly Cloudy SCT039 88 69.1 54% 92 30 0.0
18 12:45 W 3 10.00 Partly Cloudy SCT039 87.4 70.2 57% 93 30 0.0
18 12:25 W 3 10.00 Fair CLR 87.1 70 57% 92 30 0.0
18 12:05 NW 6 10.00 Fair CLR 87.3 70.2 57% 92 30.01 0.0
18 11:45 NW 5 10.00 Fair CLR 85.8 70 59% 90 30.01 0.0
18 11:25 W 5 10.00 Fair CLR 85.5 69.1 58% 89 30 0.0
18 11:05 Calm 10.00 Fair CLR 84.6 68.9 59% 88 30 0.0
18 10:45 SW 5 10.00 Fair CLR 83.7 71.2 66% 89 30.01 0.0
18 10:25 SW 5 10.00 Fair CLR 82.2 70.5 68% 86 30.02 0.0
18 10:05 Calm 10.00 Fair CLR 80.8 71.2 73% 85 30.02 0.0
18 09:45 SW 3 10.00 Fair CLR 79.3 71.2 76% 83 30.02 0.0
18 09:25 Calm 10.00 Fair CLR 78.1 71.4 80% 80 30.02 0.0
18 09:05 SW 5 10.00 Partly Cloudy SCT009 76.8 71.6 84% 78 30.02 0.0
18 08:45 SW 5 10.00 Partly Cloudy SCT009 75 71.4 89% 74 30.02 0.0
18 08:25 SW 7 10.00 Mostly Cloudy BKN007 75.4 71.4 88% 75 30.02 0.0
18 08:05 SW 5 10.00 Mostly Cloudy BKN007 74.3 71.8 92% 30.01 0.0
18 07:45 SW 3 10.00 Partly Cloudy SCT007 73.4 71.4 94% 30 0.0
18 07:25 W 5 10.00 Overcast OVC007 73 71.6 95% 30 0.0
18 07:05 Calm 10.00 Overcast OVC007 72.9 71.8 96% 29.98 0.0
18 06:45 Calm 10.00 Mostly Cloudy BKN009 71.8 71.2 98% 29.98 0.0
18 06:25 Calm 10.00 Partly Cloudy SCT005 SCT110 71.6 70.9 98% 29.97 0.0
18 06:05 Calm 10.00 Mostly Cloudy SCT005 BKN110 71.2 70.7 98% 29.96 0.0
18 05:40 Calm 10.00 Mostly Cloudy BKN110 72.3 70.9 95% 29.96 0.0
18 05:25 Calm 10.00 Mostly Cloudy BKN110 72.5 70.9 95% 29.96 0.0
18 05:05 Calm 10.00 Mostly Cloudy BKN095 72.9 70.7 93% 29.95 0.0
18 04:45 Calm 10.00 Overcast OVC095 72.9 70.7 93% 29.96 0.0
18 04:25 Calm 10.00 Mostly Cloudy BKN085 BKN120 72.9 71.1 94% 29.96 0.0
18 04:05 Calm 10.00 Fair CLR 72.5 71.1 95% 29.95 0.0
18 03:45 Calm 10.00 Fair CLR 73.6 71.2 92% 29.95 0.0
18 03:25 SW 3 10.00 Fair CLR 73.4 71.6 94% 29.95 0.0
18 03:05 Calm 10.00 Fair CLR 73.9 71.8 93% 29.96 0.0
18 02:45 SW 5 10.00 Fair CLR 74.3 72 92% 29.96 0.0
18 02:25 SW 6 10.00 Fair CLR 74.1 72 93% 29.96 0.0
18 02:05 SW 3 10.00 Fair CLR 73.4 71.8 95% 29.96 0.0
18 01:45 Calm 10.00 Fair CLR 72.9 71.6 96% 29.96 0.0
18 01:25 Calm 10.00 Fair CLR 73.2 71.4 94% 29.96 0.0
18 01:05 Calm 10.00 Fair CLR 73.8 71.8 94% 29.96 0.0
18 00:45 Calm 10.00 Fair CLR 73.8 71.6 93% 29.96 0.0
18 00:25 Calm 10.00 Fair CLR 74.5 71.6 91% 29.96 0.0
18 00:05 Calm 10.00 Fair CLR 73.9 71.2 91% 29.97 0.0
17 23:45 E 3 10.00 Fair CLR 74.7 71.2 89% 29.98 0.0
17 23:25 Calm 10.00 Fair CLR 75.4 71.4 88% 75 29.98 0.0
17 23:05 S 5 10.00 Fair CLR 75.2 71.6 89% 75 29.97 0.0
17 22:45 S 3 10.00 Partly Cloudy SCT085 SCT110 75.4 71.6 88% 75 29.98 0.0
17 22:25 W 6 10.00 Mostly Cloudy BKN085 BKN120 76.6 71.8 85% 78 29.99 0.0
17 22:05 SW 3 10.00 Mostly Cloudy BKN085 76.1 71.6 86% 77 29.98 0.0
17 21:45 S 3 10.00 Fair CLR 75.4 71.6 88% 75 29.98 0.0
17 21:25 Calm 10.00 Fair CLR 77 71.6 83% 78 29.98 0.0
17 21:05 SW 5 10.00 Fair CLR 78.1 71.6 81% 80 29.98 0.0
17 20:45 SW 6 10.00 Fair CLR 78.1 71.6 81% 80 29.97 0.0
17 20:25 SW 5 10.00 Fair CLR 79 71.6 78% 82 29.97 0.0
17 20:05 SW 9 10.00 Fair CLR 79.5 71.2 76% 83 29.96 0.0
17 19:45 SW 7 10.00 Fair CLR 80.1 70.9 74% 84 29.95 0.0
17 19:25 SW 9 10.00 Fair CLR 79.9 70.3 73% 83 29.94 0.0
17 19:05 SW 13 10.00 Fair CLR 80.8 68.9 67% 84 29.94 0.0
17 18:45 SW 13 G 25 10.00 Partly Cloudy SCT055 83.5 70.2 64% 88 29.94 0.0
17 18:25 SW 14 G 17 10.00 Partly Cloudy SCT055 85.6 74.5 69% 94 29.92 0.0
17 18:05 Calm 10.00 Fair CLR 86.7 72 62% 93 29.91 0.0
17 17:45 Calm 10.00 Fair CLR 89.2 75 63% 100 29.9 0.0
17 17:25 Calm 10.00 Fair CLR 89.8 73.4 59% 98 29.92 0.0
17 17:05 W 7 10.00 Fair CLR 90.3 72.5 56% 98 29.93 0.0
17 16:45 W 6 10.00 Fair CLR 90.7 72.1 55% 98 29.94 0.0
17 16:25 S 6 10.00 Fair CLR 91.8 72.7 54% 100 29.93 0.0
17 16:05 SW 13 10.00 Partly Cloudy SCT047 92.3 72.7 53% 101 29.93 0.0
17 15:45 SW 6 10.00 Partly Cloudy SCT047 91.9 72.7 53% 100 29.93 0.0
17 15:25 SW 7 10.00 Partly Cloudy SCT047 91.9 72.5 53% 100 29.94 0.0
17 15:05 SW 6 10.00 Fair CLR 90.9 72.1 54% 98 29.96 0.0
17 14:45 W 6 10.00 Partly Cloudy SCT045 90.7 72.1 55% 98 29.96 0.0
17 14:25 W 8 10.00 Partly Cloudy SCT045 90.7 71.8 54% 98 29.97 0.0
17 14:05 W 5 10.00 Partly Cloudy SCT040 SCT047 90 73.4 58% 99 29.97 0.0
17 13:45 SW 3 10.00 Mostly Cloudy BKN040 89.8 72.7 57% 98 29.98 0.0
17 13:25 Calm 10.00 Partly Cloudy SCT037 88.3 73 61% 96 29.98 0.0
17 13:05 Calm 10.00 Fair CLR 88.7 73.4 61% 97 29.98 0.0
17 12:45 SW 8 10.00 Partly Cloudy SCT032 87.6 73 62% 95 30 0.0
17 12:25 SW 3 10.00 Fair CLR 87.3 73 63% 95 30 0.0
17 12:05 Calm 10.00 Fair CLR 85.8 72.5 65% 92 30 0.0
17 11:45 Calm 10.00 Fair CLR 84.9 73.4 68% 92 30 0.0
17 11:25 Calm 10.00 Fair CLR 83.8 73.4 71% 90 30 0.0
17 11:05 Calm 10.00 Fair CLR 82.9 73.2 73% 89 30.01 0.0
17 10:45 Calm 10.00 Fair CLR 81.3 73.4 77% 87 30.02 0.0
17 10:25 Calm 10.00 Fair CLR 80.1 73.8 81% 85 30.01 0.0
17 10:05 Calm 10.00 Partly Cloudy SCT010 78.1 72.7 84% 81 30.01 0.0
17 09:45 S 3 10.00 Mostly Cloudy BKN008 77.4 72.9 86% 79 30.02 0.0
17 09:25 Calm 10.00 Mostly Cloudy BKN008 75.9 72.7 90% 76 30.02 0.0
17 09:05 Calm 10.00 Mostly Cloudy BKN006 75.2 72.7 92% 74 30.02 0.0
17 08:45 Calm 10.00 Fair CLR 74.1 72.1 94% 30.03 0.0
17 08:25 Calm 10.00 Partly Cloudy SCT120 73.9 72.5 95% 30.03 0.0
17 08:05 SW 3 10.00 Partly Cloudy SCT100 73.4 72.1 96% 30.02 0.0
17 07:45 Calm 10.00 Partly Cloudy SCT080 SCT110 73.4 72.7 98% 30.02 0.0
17 07:25 Calm 10.00 Mostly Cloudy SCT080 BKN110 71.8 71.6 99% 30.01 0.0
17 07:05 Calm 10.00 Partly Cloudy SCT080 SCT090 70.7 70.5 99% 30.01 0.0
17 06:45 Calm 7.00 Mostly Cloudy SCT080 BKN100 70.2 70 99% 30 0.0
17 06:25 Calm 3.00 Fog/Mist SCT001 BKN100 69.6 69.4 99% 30 0.0
17 06:05 Calm 3.00 Fog/Mist BKN001 69.8 69.8 100% 30 0.0
17 05:45 Calm 5.00 Fog/Mist SCT001 70.3 70.2 99% 29.98 0.0
17 05:25 Calm 1.00 Fog/Mist OVC001 69.8 69.8 100% 29.97 0.0
17 05:05 Calm 1.25 Fog/Mist BKN001 70.2 69.8 99% 29.96 0.0
17 04:45 Calm 5.00 Fog/Mist SCT001 71.1 70.7 99% 29.96 0.0
17 04:25 Calm 7.00 Fair CLR 70.9 70.7 99% 29.96 0.0
17 04:05 Calm 4.00 Fog/Mist CLR 70.9 70.7 99% 29.96 0.0
17 03:45 Calm 5.00 Fog/Mist CLR 70.9 70.7 99% 29.95 0.0
17 03:25 Calm 7.00 Fair CLR 70.9 70.5 99% 29.95 0.0
17 03:05 Calm 7.00 Fair CLR 71.6 70.9 98% 29.96 0.0
17 02:45 Calm 10.00 Fair CLR 72 71.2 98% 29.96 0.0
17 02:25 Calm 10.00 Partly Cloudy SCT003 72 71.4 98% 29.96 0.0
17 02:05 Calm 10.00 Partly Cloudy SCT003 71.8 71.2 98% 29.96 0.0
17 01:45 Calm 10.00 Fair CLR 71.8 71.1 98% 29.95 0.0
17 01:25 SW 3 10.00 Fair CLR 71.8 71.2 98% 29.96 0.0
17 01:05 Calm 10.00 Fair CLR 71.8 71.2 98% 29.96 0.0
17 00:45 Calm 7.00 Light Rain CLR 71.8 71.2 98% 29.97 0.0 0.02
17 00:25 Calm 5.00 Light Rain SCT050 SCT075 72 71.6 99% 29.98 0.0 0.01
17 00:05 Calm 7.00 Light Rain SCT055 OVC070 72 71.2 98% 30 0.0
16 23:45 Calm 7.00 Rain SCT025 BKN055 OVC075 72.7 71.4 96% 30 0.0 0.02
16 23:25 Calm 10.00 Light Rain SCT038 SCT047 BKN055 72.9 71.6 96% 30.01 0.0 0.01
Date Time (edt) Wind (mph) Vis. (mi.) Weather Sky Cond. Air Dwpt Max. Min. Relative Humidity Wind Chill (°F) Heat Index (°F) altimeter (in) sea level (mb) 1 hr 3 hr 6 hr
6 hour
Temperature (ºF) Pressure Precipitation (in)